Change the Weather History Date:

Tuesday, July 15, 2014

  Actual Average Record
Temperature  
Mean Temperature 78 °F 80 °F  
Max Temperature 85 °F 90 °F 103 °F (1977)
Min Temperature 70 °F 70 °F 51 °F (1967)
Degree Days  
Heating Degree Days 0 0  
Month to date heating degree days 0 0  
Since 1 June heating degree days 0 2  
Since 1 July heating degree days 0 0  
Cooling Degree Days 13 15  
Month to date cooling degree days 221 221  
Year to date cooling degree days 880 762  
Since 1 June cooling degree days 622 566  
Growing Degree Days 28 (Base 50)    
Moisture  
Dew Point 66 °F    
Average Humidity 66    
Maximum Humidity 87    
Minimum Humidity 45    
Precipitation  
Precipitation 0.01 in 0.16 in 1.92 in (1936)
Month to date precipitation 0.52 2.39  
Year to date precipitation 22.80 29.26  
Snow  
Snow 0.00 in 0.00 in - ()
Month to date snowfall 0.0 0.0  
Since 1 June snowfall 0.0 0.0  
Since 1 July snowfall 0.0 0.0  
Snow Depth 0.00 in    
Sea Level Pressure  
Sea Level Pressure 29.89 in    
Wind  
Wind Speed 6 mph (WNW)    
Max Wind Speed 17 mph    
Max Gust Speed 22 mph    
Visibility 10 miles    
Events      
T = Trace of Precipitation, MM = Missing Value Source: NWS Daily Summary

Daily Weather History Graph

Daily Weather History Graph

Search for Another Location

Airport or City:

Trip Planner

Search our weather history database for the weather conditions in past years. The results will help you decide how hot, cold, wet, or windy it might be!

Date:

Astronomy

Jul. 15, 2014 Rise Set
Actual Time 6:38 AM EDT 8:55 PM EDT
Civil Twilight 6:09 AM EDT 9:24 PM EDT
Nautical Twilight 5:33 AM EDT 9:59 PM EDT
Astronomical Twilight 4:54 AM EDT 10:38 PM EDT
Moon 11:14 PM EDT (7/15) 10:21 AM EDT (7/15)
Length of Visible Light 15h 15m
Length of Day
14h 17m
Waning Gibbous, 85% of the Moon is Illuminated
Jul 15
Waning Gibbous
Jul 18
Last Quarter
Jul 26
New
Aug 3
First Quarter
Aug 10
Full

Hourly Weather History & Observations

Time (EDT) Temp. Heat Index Dew Point Humidity Pressure Visibility Wind Dir Wind Speed Gust Speed Precip Events Conditions
12:53 AM 75.0 °F - 71.1 °F 87% 29.94 in 10.0 mi NNW 3.5 mph - N/A   Mostly Cloudy
1:53 AM 75.2 °F - 71.6 °F 89% 29.96 in 10.0 mi WSW 3.5 mph - N/A   Mostly Cloudy
2:53 AM 73.9 °F - 70.0 °F 87% 29.90 in 10.0 mi Calm Calm - N/A   Clear
3:53 AM 73.0 °F - 70.0 °F 90% 29.88 in 10.0 mi Calm Calm - N/A   Scattered Clouds
4:53 AM 73.9 °F - 70.0 °F 87% 29.88 in 10.0 mi WSW 3.5 mph - N/A   Mostly Cloudy
5:44 AM 73.0 °F - 70.0 °F 90% 29.91 in 7.0 mi Calm Calm - N/A   Mostly Cloudy
5:53 AM 73.0 °F - 70.0 °F 90% 29.89 in 7.0 mi SSE 4.6 mph - N/A   Mostly Cloudy
6:53 AM 73.0 °F - 69.1 °F 87% 29.90 in 8.0 mi SW 3.5 mph - N/A   Mostly Cloudy
7:53 AM 73.0 °F - 69.1 °F 87% 29.91 in 10.0 mi SW 3.5 mph - N/A   Mostly Cloudy
8:53 AM 73.9 °F - 69.1 °F 85% 29.91 in 10.0 mi Calm Calm - N/A   Mostly Cloudy
9:53 AM 75.0 °F - 66.9 °F 76% 29.92 in 10.0 mi West 8.1 mph - N/A   Mostly Cloudy
10:53 AM 77.0 °F - 68.0 °F 74% 29.92 in 10.0 mi West 8.1 mph - N/A   Mostly Cloudy
11:53 AM 77.0 °F - 66.9 °F 71% 29.93 in 10.0 mi SSW 5.8 mph - N/A   Mostly Cloudy
12:53 PM 80.1 °F 82.1 °F 66.0 °F 62% 29.90 in 10.0 mi Calm Calm - N/A   Mostly Cloudy
1:53 PM 84.0 °F 86.3 °F 66.0 °F 55% 29.87 in 10.0 mi West 4.6 mph - N/A   Mostly Cloudy
2:53 PM 81.0 °F 84.1 °F 69.1 °F 67% 29.86 in 10.0 mi West 6.9 mph - 0.01 in   Mostly Cloudy
3:53 PM 81.0 °F 83.0 °F 66.0 °F 60% 29.84 in 10.0 mi NNW 11.5 mph - N/A   Mostly Cloudy
4:53 PM 84.0 °F 85.8 °F 64.9 °F 53% 29.83 in 10.0 mi NNW 12.7 mph - N/A   Mostly Cloudy
5:53 PM 82.9 °F 83.3 °F 61.0 °F 47% 29.84 in 10.0 mi NW 12.7 mph - N/A   Scattered Clouds
6:53 PM 81.0 °F 81.3 °F 59.0 °F 47% 29.85 in 10.0 mi NNW 13.8 mph - N/A   Scattered Clouds
7:53 PM 80.1 °F 80.4 °F 57.0 °F 45% 29.86 in 10.0 mi NNW 10.4 mph - N/A   Scattered Clouds
8:53 PM 75.0 °F - 57.0 °F 53% 29.88 in 10.0 mi NNW 5.8 mph - N/A   Scattered Clouds
9:53 PM 72.0 °F - 59.0 °F 64% 29.90 in 10.0 mi NNW 5.8 mph - N/A   Scattered Clouds
10:53 PM 71.1 °F - 59.0 °F 66% 29.91 in 10.0 mi NNW 8.1 mph - N/A   Clear